EN

Hourly Weather Lad

Today, 1 August, Sunday

Time Temperature Precipitation Wind Pressure Humidity
00:00 +18°C° 0 mm 3 mps 747 mmHg 59%
01:00 +17°C° 0 mm 3 mps 748 mmHg 62%
02:00 +17°C° 0 mm 3 mps 748 mmHg 65%
03:00 +16°C° 0 mm 3 mps 748 mmHg 68%
04:00 +16°C° 0 mm 2 mps 747 mmHg 71%
05:00 +17°C° 0 mm 2 mps 747 mmHg 69%
06:00 +18°C° 0 mm 2 mps 747 mmHg 67%
07:00 +19°C° 0 mm 2 mps 747 mmHg 65%
08:00 +20°C° 0 mm 2 mps 747 mmHg 62%
09:00 +21°C° 0 mm 2 mps 747 mmHg 59%
10:00 +21°C° 0 mm 2 mps 747 mmHg 57%
11:00 +20°C° 0.8 mm 2 mps 748 mmHg 65%
12:00 +19°C° 0.8 mm 2 mps 748 mmHg 73%
13:00 +18°C° 0.8 mm 2 mps 748 mmHg 82%
14:00 +18°C° 0.2 mm 2 mps 748 mmHg 80%
15:00 +18°C° 0.2 mm 2 mps 748 mmHg 79%
16:00 +18°C° 0.2 mm 2 mps 747 mmHg 77%
17:00 +18°C° 0 mm 2 mps 747 mmHg 79%
18:00 +18°C° 0 mm 2 mps 747 mmHg 81%
19:00 +17°C° 0 mm 2 mps 747 mmHg 83%
20:00 +17°C° 0 mm 2 mps 747 mmHg 85%
21:00 +16°C° 0 mm 3 mps 747 mmHg 87%
22:00 +16°C° 0 mm 3 mps 747 mmHg 89%
23:00 +16°C° 0 mm 3 mps 747 mmHg 88%

Tomorrow, 2 August, Monday

Time Temperature Precipitation Wind Pressure Humidity
00:00 +16°C° 0 mm 2 mps 747 mmHg 88%
01:00 +16°C° 0 mm 2 mps 747 mmHg 87%
02:00 +16°C° 0 mm 2 mps 747 mmHg 87%
03:00 +16°C° 0 mm 2 mps 747 mmHg 86%
04:00 +16°C° 0 mm 2 mps 747 mmHg 86%
05:00 +17°C° 0 mm 3 mps 747 mmHg 82%
06:00 +18°C° 0 mm 3 mps 748 mmHg 78%
07:00 +18°C° 0 mm 3 mps 748 mmHg 74%
08:00 +20°C° 0 mm 4 mps 748 mmHg 68%
09:00 +21°C° 0 mm 5 mps 748 mmHg 62%
10:00 +22°C° 0 mm 5 mps 748 mmHg 57%
11:00 +22°C° 0.3 mm 6 mps 749 mmHg 57%
12:00 +22°C° 0.3 mm 6 mps 749 mmHg 57%
13:00 +22°C° 0.3 mm 6 mps 749 mmHg 57%
14:00 +22°C° 0.1 mm 6 mps 749 mmHg 55%
15:00 +22°C° 0.1 mm 5 mps 749 mmHg 54%
16:00 +22°C° 0.1 mm 5 mps 749 mmHg 52%
17:00 +21°C° 0 mm 5 mps 749 mmHg 54%
18:00 +20°C° 0 mm 4 mps 750 mmHg 56%
19:00 +19°C° 0 mm 3 mps 750 mmHg 58%
20:00 +18°C° 0 mm 3 mps 750 mmHg 59%
21:00 +18°C° 0 mm 3 mps 750 mmHg 60%
22:00 +17°C° 0 mm 3 mps 751 mmHg 61%
23:00 +16°C° 0 mm 3 mps 751 mmHg 65%

Day after tomorrow, 3 August, Tuesday

Time Temperature Precipitation Wind Pressure Humidity
00:00 +14°C° 0 mm 3 mps 751 mmHg 69%
01:00 +14°C° 0 mm 3 mps 751 mmHg 74%
02:00 +14°C° 0 mm 3 mps 751 mmHg 74%
03:00 +14°C° 0 mm 3 mps 751 mmHg 75%
04:00 +14°C° 0 mm 3 mps 752 mmHg 75%
05:00 +16°C° 0 mm 3 mps 752 mmHg 72%
06:00 +17°C° 0 mm 3 mps 752 mmHg 69%
07:00 +18°C° 0 mm 3 mps 752 mmHg 65%
08:00 +19°C° 0 mm 3 mps 752 mmHg 59%
09:00 +20°C° 0 mm 3 mps 752 mmHg 53%
10:00 +22°C° 0 mm 3 mps 752 mmHg 47%
11:00 +24°C° 0 mm 3 mps 752 mmHg 44%
12:00 +25°C° 0 mm 3 mps 752 mmHg 41%
13:00 +25°C° 0 mm 3 mps 752 mmHg 39%
14:00 +25°C° 0 mm 3 mps 752 mmHg 41%
15:00 +25°C° 0 mm 2 mps 751 mmHg 42%
16:00 +25°C° 0 mm 2 mps 751 mmHg 44%
17:00 +23°C° 0.1 mm 2 mps 751 mmHg 51%
18:00 +21°C° 0.1 mm 2 mps 751 mmHg 57%
19:00 +20°C° 0.1 mm 2 mps 751 mmHg 64%
20:00 +19°C° 0.4 mm 2 mps 751 mmHg 69%
21:00 +18°C° 0.4 mm 2 mps 751 mmHg 74%
22:00 +17°C° 0.4 mm 2 mps 751 mmHg 79%
23:00 +17°C° 0.2 mm 2 mps 751 mmHg 80%

4 August, Wednesday

Time Temperature Precipitation Wind Pressure Humidity
00:00 +17°C° 0.2 mm 2 mps 752 mmHg 82%
01:00 +17°C° 0.2 mm 2 mps 752 mmHg 83%
02:00 +16°C° 0 mm 2 mps 751 mmHg 84%
03:00 +16°C° 0 mm 1 mps 751 mmHg 85%
04:00 +16°C° 0 mm 1 mps 751 mmHg 86%
05:00 +18°C° 0 mm 1 mps 751 mmHg 81%
06:00 +19°C° 0 mm 1 mps 751 mmHg 77%
07:00 +20°C° 0 mm 1 mps 751 mmHg 72%
08:00 +21°C° 0 mm 1 mps 751 mmHg 67%
09:00 +23°C° 0 mm 1 mps 751 mmHg 62%
10:00 +24°C° 0 mm 1 mps 751 mmHg 58%
11:00 +24°C° 0 mm 2 mps 751 mmHg 57%
12:00 +24°C° 0 mm 2 mps 751 mmHg 56%
13:00 +25°C° 0 mm 2 mps 751 mmHg 56%
14:00 +24°C° 0.3 mm 3 mps 751 mmHg 60%
15:00 +22°C° 0.3 mm 3 mps 751 mmHg 64%
16:00 +21°C° 0.3 mm 3 mps 750 mmHg 68%
17:00 +21°C° 0.1 mm 3 mps 750 mmHg 70%
18:00 +20°C° 0.1 mm 3 mps 750 mmHg 73%
19:00 +19°C° 0.1 mm 3 mps 750 mmHg 75%
20:00 +18°C° 0 mm 3 mps 750 mmHg 78%
21:00 +18°C° 0 mm 3 mps 750 mmHg 81%
22:00 +17°C° 0 mm 3 mps 751 mmHg 83%
23:00 +17°C° 0 mm 3 mps 750 mmHg 84%

5 August, Thursday

Time Temperature Precipitation Wind Pressure Humidity
00:00 +16°C° 0 mm 3 mps 750 mmHg 84%
01:00 +16°C° 0 mm 3 mps 750 mmHg 85%
02:00 +16°C° 0 mm 3 mps 750 mmHg 84%
03:00 +16°C° 0 mm 3 mps 750 mmHg 83%
04:00 +16°C° 0 mm 3 mps 750 mmHg 82%
05:00 +16°C° 0 mm 3 mps 750 mmHg 79%
06:00 +17°C° 0 mm 3 mps 749 mmHg 77%
07:00 +17°C° 0 mm 3 mps 749 mmHg 75%
08:00 +18°C° 0 mm 3 mps 749 mmHg 70%
09:00 +19°C° 0 mm 4 mps 749 mmHg 66%
10:00 +20°C° 0 mm 4 mps 749 mmHg 62%
11:00 +21°C° 0 mm 4 mps 749 mmHg 58%
12:00 +22°C° 0 mm 4 mps 748 mmHg 55%
13:00 +23°C° 0 mm 4 mps 748 mmHg 51%
14:00 +22°C° 0 mm 4 mps 748 mmHg 51%
15:00 +22°C° 0 mm 4 mps 748 mmHg 50%
16:00 +22°C° 0 mm 3 mps 747 mmHg 50%
17:00 +21°C° 0 mm 3 mps 747 mmHg 54%
18:00 +21°C° 0 mm 3 mps 747 mmHg 57%
19:00 +20°C° 0 mm 3 mps 747 mmHg 61%
20:00 +19°C° 0 mm 3 mps 747 mmHg 64%
21:00 +18°C° 0 mm 3 mps 747 mmHg 67%
22:00 +16°C° 0 mm 3 mps 747 mmHg 70%
23:00 +16°C° 0 mm 3 mps 747 mmHg 73%

6 August, Friday

Time Temperature Precipitation Wind Pressure Humidity
00:00 +16°C° 0 mm 3 mps 747 mmHg 76%
01:00 +14°C° 0 mm 3 mps 747 mmHg 79%
02:00 +14°C° 0 mm 3 mps 747 mmHg 82%
03:00 +13°C° 0 mm 3 mps 747 mmHg 86%
04:00 +13°C° 0 mm 3 mps 746 mmHg 89%
05:00 +14°C° 0 mm 4 mps 746 mmHg 83%
06:00 +15°C° 0 mm 4 mps 746 mmHg 77%
07:00 +16°C° 0 mm 5 mps 746 mmHg 72%
08:00 +19°C° 0 mm 5 mps 746 mmHg 65%
09:00 +20°C° 0 mm 6 mps 746 mmHg 59%
10:00 +22°C° 0 mm 6 mps 746 mmHg 53%
11:00 +22°C° 0 mm 6 mps 746 mmHg 51%
12:00 +23°C° 0 mm 6 mps 746 mmHg 49%
13:00 +23°C° 0 mm 6 mps 746 mmHg 47%
14:00 +23°C° 0 mm 6 mps 746 mmHg 49%
15:00 +23°C° 0 mm 5 mps 746 mmHg 51%
16:00 +23°C° 0 mm 4 mps 746 mmHg 52%
17:00 +22°C° 0 mm 4 mps 746 mmHg 57%
18:00 +21°C° 0 mm 4 mps 746 mmHg 63%
19:00 +20°C° 0 mm 4 mps 746 mmHg 68%
20:00 +19°C° 0 mm 4 mps 746 mmHg 74%
21:00 +18°C° 0 mm 3 mps 746 mmHg 79%
22:00 +17°C° 0 mm 3 mps 746 mmHg 85%
23:00 +16°C° 0 mm 3 mps 746 mmHg 87%
Show more